< < Back
Terminal Aerodrome Forecast


Current Version              Previous Versions:   1  2  3  4  5  6  7  8  9  

Terminal Aerodrome Forecast

168
FTUS44 KMRX 272320
TAFTYS
TAF
KTYS 272320Z 2800/2824 05007KT P6SM SCT060
     FM280100 02003KT P6SM FEW060
     FM281400 06004KT P6SM SCT050=

Latest METAR

835
SAUS80 KWBC 280400 RRB
MTRTYS
METAR KTYS 280353Z 08005KT 10SM BKN090 22/16 A3011 RMK AO2 SLP184
T02170156 $


USA.gov is the U.S. government's official web portal to all federal, state and local government web resources and services.